Hourly Data Report for October 06, 2014

All times are specified in Local Standard Time (LST). Add 1 hour to adjust for Daylight Saving Time where and when it is observed.

KITCHENER/WATERLOO
ONTARIO

43°27'39.000" N
80°22'43.000" W
321.60 m
6144239
71368
YKF

Download Data

Hourly Data (October 2014)
Hourly Data Report for October 6, 2014
Temp Definition
°C
Dew Point Temp Definition
°C
Rel Hum Definition
%
Wind Dir Definition
10's deg

Wind Spd Definition
km/h
Visibility Definition
km
Stn Press Definition
kPa
Hmdx Definition


Wind Chill Definition


Weather Definition


TIME
00:00 Legend Double Dagger 7.8 5.1 83 17 15 16.1 96.92     Rain
01:00 Legend Double Dagger 7.9 5.8 87 19 15 16.1 96.91     Rain
02:00 Legend Double Dagger 7.7 6.0 89 18 13 16.1 96.87     Rain
03:00 Legend Double Dagger 7.7 6.2 90 17 11 16.1 96.80     LegendNANA
04:00 Legend Double Dagger 7.8 6.4 91 16 13 16.1 96.80     LegendNANA
05:00 Legend Double Dagger 8.1 6.6 90 17 15 16.1 96.79     LegendNANA
06:00 Legend Double Dagger 8.6 7.1 90 17 15 16.1 96.80     LegendNANA
07:00 Legend Double Dagger 9.0 7.3 89 16 11 16.1 96.79     LegendNANA
08:00 Legend Double Dagger 10.1 7.7 85 17 18 16.1 96.82     LegendNANA
09:00 Legend Double Dagger 11.2 8.4 83 18 13 16.1 96.86     LegendNANA
10:00 Legend Double Dagger 12.2 8.9 80 19 18 16.1 96.89     LegendNANA
11:00 Legend Double Dagger 12.8 9.6 81 21 13 16.1 96.85     LegendNANA
12:00 Legend Double Dagger 15.5 9.5 67 23 17 16.1 96.80     LegendNANA
13:00 Legend Double Dagger 15.9 7.6 57 19 32 16.1 96.75     LegendNANA
14:00 Legend Double Dagger 16.8 7.6 54 18 32 16.1 96.73     LegendNANA
15:00 Legend Double Dagger 14.7 8.5 66 18 32 16.1 96.78     LegendNANA
16:00 Legend Double Dagger 13.6 9.5 76 17 17 16.1 96.79     LegendNANA
17:00 Legend Double Dagger 12.1 9.7 85 20 28 8.1 96.80     Moderate Rain,Fog
18:00 Legend Double Dagger 10.8 9.1 89 19 5 16.1 96.77     LegendNANA
19:00 Legend Double Dagger 10.5 9.4 93 11 13 16.1 96.71     LegendNANA
20:00 Legend Double Dagger 11.2 9.8 91 15 22 16.1 96.69     LegendNANA
21:00 Legend Double Dagger 12.2 10.8 91 16 35 8.1 96.64     Thunderstorms,Rain,Fog
22:00 Legend Double Dagger 10.5 9.4 93 20 17 8.1 96.78     Rain,Fog
23:00 Legend Double Dagger 11.1 10.0 93 19 13 16.1 96.81     LegendNANA

Notes on Data Quality.

Legend

  • E = Estimated
  • M = Missing
  • NA = Not Available
  • ‡ = Partner data that is not subject to review by the National Climate Archives
Date modified: